Hayward, WI

9:01 PM CDT on August 23, 2017 (GMT -0500)
Sawyer County

Weather History for KHYR - December, 2012

Change the Weather History Date:

Saturday, December 1, 2012

  Actual Average Record
Temperature  
Mean Temperature 34 °F -  
Max Temperature 37 °F 39 °F 55 °F (1998)
Min Temperature 32 °F 21 °F -8 °F (2014)
Degree Days  
Heating Degree Days 30    
Moisture  
Dew Point 33 °F    
Average Humidity 92    
Maximum Humidity 100    
Minimum Humidity 87    
Precipitation  
Precipitation 0.00 in - - ()
Sea Level Pressure  
Sea Level Pressure 29.88 in    
Wind  
Wind Speed 8 mph (SSE)    
Max Wind Speed 16 mph    
Max Gust Speed 23 mph    
Visibility 2 miles    
Events Fog    
Averages and records for this station are not official NWS values.
T = Trace of Precipitation, MM = Missing Value Source: NWS Daily Summary

Daily Weather History Graph

Daily Weather History Graph

Search for Another Location

Airport or City:

Trip Planner

Search our weather history database for the weather conditions in past years. The results will help you decide how hot, cold, wet, or windy it might be!

Date:

Astronomy

Dec. 01, 2012 Rise Set
Actual Time 7:27 AM CST 4:21 PM CST
Civil Twilight 6:53 AM CST 4:55 PM CST
Nautical Twilight 6:16 AM CST 5:33 PM CST
Astronomical Twilight 5:40 AM CST 6:09 PM CST
Moon 7:15 PM CST (12/1) 9:38 AM CST (12/1)
Length of Visible Light 10h 01m
Length of Day
8h 54m
Waning Gibbous, 91% of the Moon is Illuminated
Dec 1
Waning Gibbous
Dec 6
Last Quarter
Dec 13
New
Dec 19
First Quarter
Dec 28
Full

Hourly Weather History & Observations

Time (CST) Temp. Windchill Dew Point Humidity Pressure Visibility Wind Dir Wind Speed Gust Speed Precip Events Conditions
12:28 AM 32.0 °F 24.8 °F 30.2 °F 93% 30.09 in 4.0 mi South 8.1 mph - N/A   Overcast
12:53 AM 32.0 °F 24.8 °F 28.9 °F 88% 30.13 in 4.0 mi SSE 8.1 mph 18.4 mph N/A   Overcast
1:53 AM 32.0 °F 22.5 °F 28.9 °F 88% 30.11 in 4.0 mi South 12.7 mph 21.9 mph N/A   Overcast
2:53 AM 32.0 °F 23.6 °F 28.9 °F 88% 30.09 in 4.0 mi SSE 10.4 mph - N/A   Overcast
3:53 AM 32.0 °F 24.2 °F 30.0 °F 92% 30.06 in 4.0 mi South 9.2 mph 16.1 mph N/A   Overcast
4:36 AM 32.0 °F 23.6 °F 30.2 °F 93% 29.98 in 2.5 mi SSE 10.4 mph 17.3 mph N/A   Overcast
5:43 AM 32.0 °F 24.8 °F 30.2 °F 93% 29.95 in 3.0 mi SSE 8.1 mph 18.4 mph N/A   Overcast
5:53 AM 32.0 °F 24.2 °F 30.9 °F 96% 30.00 in 3.0 mi SSE 9.2 mph - N/A   Overcast
6:29 AM 33.8 °F 25.3 °F 30.2 °F 87% 29.93 in 2.5 mi SSE 11.5 mph 21.9 mph N/A   Overcast
6:53 AM 33.1 °F 23.9 °F 30.9 °F 92% 29.98 in 2.5 mi South 12.7 mph 18.4 mph N/A   Overcast
7:24 AM 33.8 °F 24.3 °F 30.2 °F 87% 29.92 in 3.0 mi SSE 13.8 mph 19.6 mph N/A   Overcast
7:53 AM 33.1 °F 25.5 °F 30.9 °F 92% 29.96 in 3.0 mi SSE 9.2 mph - N/A   Overcast
8:01 AM 33.8 °F 25.8 °F 30.2 °F 87% 29.90 in 2.0 mi SSE 10.4 mph - N/A   Overcast
8:09 AM 33.8 °F 24.8 °F 30.2 °F 87% 29.89 in 1.8 mi SSE 12.7 mph 23.0 mph N/A   Overcast
8:23 AM 33.8 °F 24.8 °F 30.2 °F 87% 29.89 in 2.0 mi South 12.7 mph 19.6 mph N/A   Overcast
8:39 AM 33.8 °F 24.8 °F 32.0 °F 93% 29.89 in 1.8 mi SSE 12.7 mph 19.6 mph N/A   Overcast
8:53 AM 34.0 °F 23.8 °F 32.0 °F 92% 29.93 in 1.8 mi SSE 16.1 mph 21.9 mph N/A   Overcast
9:30 AM 35.6 °F 28.6 °F 32.0 °F 87% 29.90 in 2.0 mi South 9.2 mph - N/A   Overcast
9:53 AM 35.1 °F 26.9 °F 32.0 °F 89% 29.93 in 2.0 mi South 11.5 mph - N/A   Overcast
10:02 AM 35.6 °F 27.5 °F 33.8 °F 93% 29.89 in 1.8 mi SSE 11.5 mph 18.4 mph N/A   Overcast
11:53 AM 35.1 °F 27.4 °F 33.1 °F 92% 29.86 in 1.5 mi SSE 10.4 mph - N/A   Overcast
12:05 PM 35.6 °F 28.0 °F 33.8 °F 93% 29.81 in 2.0 mi South 10.4 mph - N/A   Overcast
12:53 PM 36.0 °F 28.5 °F 34.0 °F 93% 29.80 in 2.5 mi SSE 10.4 mph 16.1 mph N/A   Overcast
1:53 PM 37.0 °F 29.8 °F 34.0 °F 89% 29.79 in 2.5 mi South 10.4 mph - 0.00 in   Overcast
2:53 PM 37.0 °F 33.3 °F 34.0 °F 89% 29.77 in 2.0 mi South 4.6 mph - N/A   Overcast
3:02 PM 37.4 °F 32.1 °F 35.6 °F 93% 29.73 in 1.8 mi South 6.9 mph - N/A   Overcast
3:22 PM 37.4 °F 32.8 °F 35.6 °F 93% 29.73 in 1.0 mi South 5.8 mph - N/A   Overcast
3:53 PM 37.0 °F 33.3 °F 35.1 °F 93% 29.78 in 1.0 mi South 4.6 mph - N/A   Overcast
4:03 PM 37.4 °F 34.9 °F 35.6 °F 93% 29.74 in 0.8 mi South 3.5 mph - N/A   Overcast
4:17 PM 37.4 °F - 35.6 °F 93% 29.74 in 1.0 mi Calm Calm - N/A   Overcast
4:37 PM 37.4 °F - 35.6 °F 93% 29.75 in 0.8 mi Calm Calm - N/A   Overcast
4:53 PM 37.0 °F - 35.1 °F 93% 29.79 in 0.5 mi Calm Calm - N/A Fog Fog
5:53 PM 36.0 °F - 34.0 °F 93% 29.81 in 0.5 mi Calm Calm - N/A Fog Fog
6:45 PM 35.6 °F - 35.6 °F 100% 29.77 in 0.2 mi Calm Calm - N/A Fog Fog
6:53 PM 36.0 °F - 34.0 °F 93% 29.81 in 0.2 mi Calm Calm - N/A Fog Fog
7:48 PM 35.6 °F - 33.8 °F 93% 29.77 in 0.5 mi Calm Calm - N/A Fog Fog
7:53 PM 35.1 °F - 33.1 °F 92% 29.81 in 0.5 mi Calm Calm - N/A Fog Fog
8:53 PM 35.1 °F - 33.1 °F 92% 29.81 in 0.5 mi Calm Calm - N/A Fog Fog
9:53 PM 35.1 °F - 34.0 °F 96% 29.82 in 0.5 mi Calm Calm - N/A Fog Fog
10:53 PM 37.0 °F - 36.0 °F 96% 29.84 in 0.5 mi Calm Calm - N/A Fog Fog
11:20 PM 37.4 °F - 35.6 °F 93% 29.80 in 1.0 mi Calm Calm - N/A   Overcast
11:53 PM 37.0 °F - 36.0 °F 96% 29.85 in 1.2 mi Calm Calm - N/A   Overcast